Weather History for Hartford, CT

Change the Weather History Date:

Friday, June 28, 2013

  Actual Average Record
Temperature  
Mean Temperature 76 °F -  
Max Temperature 82 °F 81 °F 95 °F (1969)
Min Temperature 69 °F 59 °F 42 °F (1980)
Cooling Degree Days 10    
Growing Degree Days 26 (Base 50)    
Moisture  
Dew Point 70 °F    
Average Humidity 85    
Maximum Humidity 100    
Minimum Humidity 67    
Precipitation  
Precipitation 1.04 in - - ()
Sea Level Pressure  
Sea Level Pressure 29.53 in    
Wind  
Wind Speed 8 mph (South)    
Max Wind Speed 16 mph    
Max Gust Speed 23 mph    
Visibility 8 miles    
Events Fog , Rain , Thunderstorm    
Averages and records for this station are not official NWS values.
T = Trace of Precipitation, MM = Missing Value Source: NWS Daily Summary

Daily Weather History Graph

Daily Weather History Graph

Search for Another Location

Airport:

Trip Planner

Search our weather history database for the weather conditions in past years. The results will help you decide how hot, cold, wet, or windy it might be!

Date:

Astronomy

Jun. 28, 2013 Rise Set
Actual Time 5:18 AM EDT 8:29 PM EDT
Civil Twilight 4:44 AM EDT 9:03 PM EDT
Nautical Twilight 4:00 AM EDT 9:47 PM EDT
Astronomical Twilight 3:07 AM EDT 10:39 PM EDT
Moon 11:50 PM EDT (6/28) 11:28 AM EDT (6/28)
Length of Visible Light 16h 19m
Length of Day
15h 10m
Waning Gibbous, 66% of the Moon is Illuminated
Jun 28
Waning Gibbous
Jun 30
Last Quarter
Jul 8
New
Jul 15
First Quarter
Jul 22
Full

Hourly Weather History & Observations

Time (EDT) Temp. Heat Index Dew Point Humidity Pressure Visibility Wind Dir Wind Speed Gust Speed Precip Events Conditions
12:04 AM 69.8 °F - 69.8 °F 100% 29.66 in 1.5 mi East 5.8 mph - 0.16 in Rain Rain
12:08 AM 69.8 °F - 68.0 °F 94% 29.65 in 3.0 mi ESE 5.8 mph - 0.16 in Rain Rain
12:25 AM 69.8 °F - 68.0 °F 94% 29.63 in 6.0 mi East 8.1 mph - 0.24 in Rain Light Rain
12:31 AM 69.8 °F - 68.0 °F 94% 29.61 in 1.8 mi East 10.4 mph 16.1 mph 0.45 in Rain Heavy Rain
12:38 AM 71.6 °F - 68.0 °F 88% 29.62 in 2.0 mi ESE 8.1 mph - 0.50 in Rain , Thunderstorm Rain
12:53 AM 70.0 °F - 68.0 °F 93% 29.62 in 8.0 mi South 5.8 mph 21.9 mph 0.52 in Rain Light Rain
1:19 AM 69.8 °F - 68.0 °F 94% 29.60 in 10.0 mi ESE 6.9 mph - 0.01 in Rain Light Rain
1:53 AM 71.1 °F - 69.1 °F 93% 29.58 in 10.0 mi SE 6.9 mph - 0.01 in   Overcast
2:00 AM 71.6 °F - 69.8 °F 94% 29.57 in 10.0 mi SE 8.1 mph - N/A   Overcast
2:46 AM 73.4 °F - 71.6 °F 94% 29.57 in 10.0 mi SSE 9.2 mph - N/A   Overcast
2:53 AM 73.0 °F - 71.1 °F 93% 29.57 in 10.0 mi SSE 9.2 mph - N/A   Overcast
2:58 AM 73.4 °F - 71.6 °F 94% 29.57 in 10.0 mi SSE 10.4 mph 16.1 mph N/A   Overcast
3:53 AM 73.0 °F - 71.1 °F 93% 29.55 in 10.0 mi SSE 6.9 mph - 0.00 in   Overcast
4:41 AM 73.4 °F - 69.8 °F 88% 29.53 in 10.0 mi SSE 6.9 mph - N/A   Overcast
4:53 AM 73.0 °F - 70.0 °F 90% 29.53 in 10.0 mi SSE 9.2 mph - N/A   Overcast
5:13 AM 73.4 °F - 69.8 °F 88% 29.53 in 10.0 mi SSE 8.1 mph - 0.00 in Rain Light Rain
5:21 AM 73.4 °F - 69.8 °F 88% 29.53 in 10.0 mi SSE 10.4 mph - 0.00 in Rain Light Rain
5:28 AM 73.4 °F - 69.8 °F 88% 29.53 in 10.0 mi SSE 9.2 mph - 0.00 in Rain Light Rain
5:51 AM 73.4 °F - 71.6 °F 94% 29.53 in 10.0 mi South 9.2 mph - 0.00 in   Overcast
5:53 AM 73.0 °F - 71.1 °F 93% 29.53 in 10.0 mi SSE 11.5 mph - 0.00 in   Overcast
6:53 AM 73.0 °F - 70.0 °F 90% 29.53 in 10.0 mi South 9.2 mph - N/A   Overcast
7:53 AM 73.9 °F - 71.1 °F 91% 29.54 in 10.0 mi SSE 9.2 mph - N/A   Overcast
8:16 AM 75.2 °F - 71.6 °F 89% 29.53 in 10.0 mi SSE 10.4 mph - N/A   Overcast
8:53 AM 75.9 °F - 71.1 °F 85% 29.52 in 10.0 mi South 6.9 mph - N/A   Overcast
9:53 AM 77.0 °F - 70.0 °F 79% 29.50 in 10.0 mi South 12.7 mph - N/A   Overcast
10:01 AM 78.8 °F - 69.8 °F 74% 29.50 in 10.0 mi South 11.5 mph 18.4 mph N/A   Overcast
10:53 AM 80.1 °F 82.9 °F 69.1 °F 69% 29.49 in 10.0 mi SSW 9.2 mph 19.6 mph N/A   Mostly Cloudy
11:25 AM 80.6 °F 83.9 °F 69.8 °F 70% 29.49 in 10.0 mi South 8.1 mph - N/A   Overcast
11:32 AM 80.6 °F 83.9 °F 69.8 °F 70% 29.49 in 10.0 mi South 13.8 mph 23.0 mph N/A   Overcast
11:53 AM 81.0 °F 84.1 °F 69.1 °F 67% 29.49 in 10.0 mi South 16.1 mph 23.0 mph N/A   Overcast
12:26 PM 78.8 °F - 69.8 °F 74% 29.51 in 10.0 mi SW 13.8 mph 20.7 mph 0.00 in Rain , Thunderstorm Light Rain
12:31 PM 73.4 °F - 71.6 °F 94% 29.51 in 0.8 mi West 12.7 mph 20.7 mph 0.28 in Rain , Thunderstorm Heavy Rain
12:36 PM 71.6 °F - 69.8 °F 94% 29.51 in 0.5 mi West 6.9 mph 20.7 mph 0.34 in Fog , Rain , Thunderstorm Heavy Rain
12:43 PM 73.4 °F - 69.8 °F 88% 29.51 in 2.0 mi WSW 4.6 mph - 0.38 in Rain , Thunderstorm Rain
12:48 PM 73.4 °F - 69.8 °F 88% 29.52 in 4.0 mi WSW 8.1 mph - 0.39 in Rain , Thunderstorm Rain
12:53 PM 73.0 °F - 70.0 °F 90% 29.51 in 3.0 mi WSW 9.2 mph - 0.40 in Rain , Thunderstorm Thunderstorms and Rain
1:02 PM 73.4 °F - 69.8 °F 88% 29.51 in 6.0 mi South 5.8 mph - 0.01 in Rain , Thunderstorm Light Thunderstorms and Rain
1:34 PM 75.2 °F - 71.6 °F 89% 29.51 in 10.0 mi South 9.2 mph - 0.01 in   Overcast
1:42 PM 78.8 °F - 71.6 °F 78% 29.50 in 10.0 mi South 9.2 mph - 0.01 in Thunderstorm Mostly Cloudy
1:53 PM 79.0 °F - 72.0 °F 79% 29.50 in 10.0 mi SSW 5.8 mph - 0.01 in Thunderstorm Scattered Clouds
2:03 PM 80.6 °F 84.6 °F 71.6 °F 74% 29.50 in 10.0 mi SSW 8.1 mph - N/A   Partly Cloudy
2:53 PM 82.0 °F 85.9 °F 70.0 °F 67% 29.49 in 10.0 mi SSW 11.5 mph 21.9 mph N/A   Partly Cloudy
3:27 PM 78.8 °F - 71.6 °F 78% 29.47 in 2.5 mi South 11.5 mph 20.7 mph 0.09 in Rain Light Rain
3:34 PM 78.8 °F - 71.6 °F 78% 29.48 in 10.0 mi South 11.5 mph 18.4 mph 0.09 in   Mostly Cloudy
3:53 PM 81.0 °F 85.2 °F 72.0 °F 74% 29.48 in 10.0 mi SSW 11.5 mph 21.9 mph 0.09 in   Scattered Clouds
4:53 PM 79.0 °F - 70.0 °F 74% 29.48 in 10.0 mi South 11.5 mph 21.9 mph N/A   Partly Cloudy
5:53 PM 79.0 °F - 71.1 °F 77% 29.49 in 10.0 mi South 10.4 mph - N/A   Clear
6:05 PM 78.8 °F - 71.6 °F 78% 29.48 in 10.0 mi South 10.4 mph 18.4 mph N/A Thunderstorm Clear
6:53 PM 78.1 °F - 69.1 °F 74% 29.48 in 10.0 mi South 5.8 mph - 0.01 in   Clear
7:53 PM 78.1 °F - 71.1 °F 79% 29.49 in 10.0 mi South 8.1 mph - N/A   Clear
8:53 PM 75.9 °F - 71.1 °F 85% 29.51 in 10.0 mi South 8.1 mph - N/A   Clear
9:53 PM 75.9 °F - 69.1 °F 79% 29.52 in 10.0 mi South 8.1 mph - N/A   Mostly Cloudy
10:53 PM 73.9 °F - 70.0 °F 87% 29.52 in 10.0 mi South 8.1 mph - N/A   Scattered Clouds
11:53 PM 73.9 °F - 71.1 °F 91% 29.52 in 9.0 mi South 6.9 mph - N/A   Unknown